DW8313 Weather Reports


Display with metric or nautical units.
time (UTC)temp
F
wind
direction
speed
MPH
gust
MPH
rain 1hr
in
rain 24hr
in
rain mn
in
humidity
%
barometer
mb
20200228062409 60 89 0.0 1.0 0.00 0.00 0.00 23 1023.2
20200228062210 61 89 0.0 0.0 0.00 0.00 0.00 23 1023.3
20200228062010 61 89 0.0 0.0 0.00 0.00 0.00 23 1023.2
20200228061810 61 89 0.0 2.0 0.00 0.00 0.00 23 1023.2
20200228061410 61 88 0.0 2.0 0.00 0.00 0.00 23 1023.2
20200228061210 61 88 0.0 2.0 0.00 0.00 0.00 23 1023.3
20200228055810 60 86 2.0 4.0 0.00 0.00 0.00 24 1023.2
20200228055610 60 73 2.0 4.0 0.00 0.00 0.00 24 1023.2
20200228055410 59 91 1.0 4.0 0.00 0.00 0.00 25 1023.3
20200228055210 59 94 1.0 2.0 0.00 0.00 0.00 26 1023.3
20200228054809 60 73 0.0 1.0 0.00 0.00 0.00 26 1023.5
20200228054611 60 74 0.0 1.0 0.00 0.00 0.00 25 1023.6
20200228054410 60 99 0.0 0.0 0.00 0.00 0.00 25 1023.6
20200228054011 61 99 0.0 1.0 0.00 0.00 0.00 23 1023.5
20200228053809 61 98 0.0 1.0 0.00 0.00 0.00 23 1023.5
20200228053410 60 99 0.0 1.0 0.00 0.00 0.00 23 1023.5
20200228053210 60 98 0.0 1.0 0.00 0.00 0.00 23 1023.5
20200228052809 60 99 0.0 0.0 0.00 0.00 0.00 23 1023.4
20200228052410 60 99 0.0 0.0 0.00 0.00 0.00 24 1023.4
20200228052210 60 103 0.0 0.0 0.00 0.00 0.00 23 1023.4
20200228051810 60 103 0.0 1.0 0.00 0.00 0.00 24 1023.3
20200228051409 60 83 0.0 1.0 0.00 0.00 0.00 24 1023.3
20200228051010 60 85 0.0 0.0 0.00 0.00 0.00 23 1023.3
20200228050810 60 89 0.0 0.0 0.00 0.00 0.00 23 1023.3
20200228050409 60 89 0.0 1.0 0.00 0.00 0.00 22 1023.5
20200228050209 60 89 0.0 1.0 0.00 0.00 0.00 22 1023.4
20200228050010 60 87 0.0 1.0 0.00 0.00 0.00 21 1023.4
20200228045809 61 89 0.0 1.0 0.00 0.00 0.00 22 1023.4
20200228045410 61 83 0.0 1.0 0.00 0.00 0.00 22 1023.4
20200228045210 61 82 0.0 1.0 0.00 0.00 0.00 22 1023.4
20200228044809 61 86 0.0 1.0 0.00 0.00 0.00 21 1023.5
20200228044010 62 86 0.0 1.0 0.00 0.00 0.00 21 1023.4
20200228043810 62 77 0.0 1.0 0.00 0.00 0.00 20 1023.4
20200228043410 62 89 0.0 0.0 0.00 0.00 0.00 20 1023.4
20200228043010 61 86 0.0 0.0 0.00 0.00 0.00 20 1023.4
20200228042610 61 86 0.0 0.0 0.00 0.00 0.00 20 1023.4
20200228041409 61 88 0.0 2.0 0.00 0.00 0.00 24 1023.4
20200228041210 61 91 0.0 2.0 0.00 0.00 0.00 24 1023.5
20200228041009 61 86 0.0 1.0 0.00 0.00 0.00 24 1023.6
20200228040409 61 84 0.0 2.0 0.00 0.00 0.00 24 1023.6
20200228040010 61 85 1.0 3.0 0.00 0.00 0.00 23 1023.6
20200228035610 61 90 2.0 3.0 0.00 0.00 0.00 24 1023.6
20200228035410 61 100 2.0 3.0 0.00 0.00 0.00 24 1023.6
20200228034210 60 77 2.0 3.0 0.00 0.00 0.00 25 1023.4
20200228033810 60 77 2.0 3.0 0.00 0.00 0.00 25 1023.4
20200228033610 60 77 2.0 3.0 0.00 0.00 0.00 25 1023.4
20200228033410 60 84 1.0 3.0 0.00 0.00 0.00 25 1023.4
20200228033009 60 75 0.0 2.0 0.00 0.00 0.00 27 1023.5
20200228032810 60 86 0.0 1.0 0.00 0.00 0.00 27 1023.5
20200228032210 60 95 0.0 1.0 0.00 0.00 0.00 26 1023.5
20200228031810 60 94 0.0 1.0 0.00 0.00 0.00 26 1023.5
20200228031210 60 87 0.0 1.0 0.00 0.00 0.00 27 1023.5
20200228025810 61 91 0.0 0.0 0.00 0.00 0.00 26 1023.4
20200228025609 61 91 0.0 0.0 0.00 0.00 0.00 26 1023.4
20200228025210 61 91 0.0 1.0 0.00 0.00 0.00 26 1023.3
20200228025010 61 91 0.0 1.0 0.00 0.00 0.00 26 1023.3
20200228024810 61 91 0.0 1.0 0.00 0.00 0.00 26 1023.3
20200228024610 61 91 0.0 1.0 0.00 0.00 0.00 26 1023.3
20200228024410 61 91 0.0 1.0 0.00 0.00 0.00 26 1023.3
20200228024210 62 101 0.0 1.0 0.00 0.00 0.00 26 1023.4
20200228023810 62 91 1.0 2.0 0.00 0.00 0.00 25 1023.4
20200228023209 62 91 2.0 3.0 0.00 0.00 0.00 25 1023.4
20200228022810 62 85 2.0 3.0 0.00 0.00 0.00 25 1023.3
20200228022409 62 91 2.0 3.0 0.00 0.00 0.00 25 1023.4
20200228022210 62 89 3.0 4.0 0.00 0.00 0.00 25 1023.4
20200228020809 62 75 3.0 4.0 0.00 0.00 0.00 25 1023.4
20200228020009 62 79 3.0 4.0 0.00 0.00 0.00 26 1023.6
20200228015610 62 99 3.0 4.0 0.00 0.00 0.00 26 1023.7
20200228015409 62 92 3.0 4.0 0.00 0.00 0.00 26 1023.6
20200228015010 62 89 2.0 4.0 0.00 0.00 0.00 26 1023.7
20200228014810 62 97 2.0 4.0 0.00 0.00 0.00 27 1023.6
20200228014409 62 88 1.0 4.0 0.00 0.00 0.00 27 1023.6
20200228014210 62 89 1.0 4.0 0.00 0.00 0.00 27 1023.6
20200228014010 62 88 1.0 4.0 0.00 0.00 0.00 27 1023.6
20200228013609 62 102 2.0 3.0 0.00 0.00 0.00 26 1023.6
20200228013410 62 81 2.0 3.0 0.00 0.00 0.00 26 1023.6
20200228013210 62 94 2.0 3.0 0.00 0.00 0.00 26 1023.5
20200228013010 62 99 2.0 3.0 0.00 0.00 0.00 27 1023.6
20200228012809 63 89 1.0 3.0 0.00 0.00 0.00 26 1023.5
20200228012010 63 88 0.0 2.0 0.00 0.00 0.00 26 1023.5
20200228011609 63 84 0.0 1.0 0.00 0.00 0.00 26 1023.4
20200228010810 63 86 0.0 1.0 0.00 0.00 0.00 27 1023.5
20200228010609 63 97 0.0 1.0 0.00 0.00 0.00 27 1023.5
20200228010210 64 98 0.0 1.0 0.00 0.00 0.00 27 1023.5
20200228005810 64 77 0.0 1.0 0.00 0.00 0.00 26 1023.3
20200228005609 64 96 0.0 1.0 0.00 0.00 0.00 26 1023.3
20200228005409 64 94 0.0 1.0 0.00 0.00 0.00 25 1023.2
20200228005210 65 121 0.0 0.0 0.00 0.00 0.00 26 1023.4
20200228005009 65 122 1.0 2.0 0.00 0.00 0.00 25 1023.3
20200228004810 65 123 1.0 3.0 0.00 0.00 0.00 26 1023.3
20200228004610 65 122 1.0 3.0 0.00 0.00 0.00 25 1023.2
20200228004210 65 122 2.0 3.0 0.00 0.00 0.00 22 1023.1
20200228004009 66 124 1.0 3.0 0.00 0.00 0.00 23 1023.1
20200228003610 66 115 1.0 3.0 0.00 0.00 0.00 22 1023.1
20200228003409 66 130 0.0 2.0 0.00 0.00 0.00 22 1023.0
20200228002810 67 122 0.0 0.0 0.00 0.00 0.00 24 1023.1
20200228002609 67 120 0.0 0.0 0.00 0.00 0.00 24 1023.1
20200228001210 68 284 0.0 1.0 0.00 0.00 0.00 22 1022.8
20200228000810 68 283 0.0 1.0 0.00 0.00 0.00 22 1022.7
20200228000609 68 284 0.0 1.0 0.00 0.00 0.00 23 1022.6
20200227235610 68 283 0.0 1.0 0.00 0.00 0.00 21 1022.6
20200227235410 68 273 0.0 1.0 0.00 0.00 0.00 22 1022.6
20200227235209 68 267 0.0 1.0 0.00 0.00 0.00 22 1022.6
20200227234810 68 252 0.0 1.0 0.00 0.00 0.00 22 1022.6
20200227234609 68 264 0.0 1.0 0.00 0.00 0.00 22 1022.6
20200227234410 69 249 0.0 1.0 0.00 0.00 0.00 21 1022.5
20200227234209 69 240 0.0 0.0 0.00 0.00 0.00 22 1022.6
20200227234010 69 201 0.0 1.0 0.00 0.00 0.00 21 1022.6
20200227233810 69 287 0.0 3.0 0.00 0.00 0.00 21 1022.6
20200227233609 69 288 0.0 3.0 0.00 0.00 0.00 19 1022.6
20200227233410 69 287 0.0 3.0 0.00 0.00 0.00 22 1022.6
20200227233010 69 263 0.0 3.0 0.00 0.00 0.00 19 1022.6
20200227232610 69 252 0.0 1.0 0.00 0.00 0.00 20 1022.6
20200227232210 70 277 0.0 0.0 0.00 0.00 0.00 19 1022.6
20200227232010 70 235 0.0 0.0 0.00 0.00 0.00 19 1022.6
20200227231810 69 235 0.0 0.0 0.00 0.00 0.00 18 1022.6
20200227231410 70 273 0.0 1.0 0.00 0.00 0.00 20 1022.6
20200227230810 69 266 0.0 1.0 0.00 0.00 0.00 19 1022.7
20200227225810 70 256 0.0 2.0 0.00 0.00 0.00 19 1022.7
20200227225609 70 38 0.0 2.0 0.00 0.00 0.00 19 1022.7
20200227225410 70 239 0.0 2.0 0.00 0.00 0.00 18 1022.8
20200227224609 69 345 0.0 2.0 0.00 0.00 0.00 20 1022.8
20200227224209 69 244 0.0 2.0 0.00 0.00 0.00 19 1023.0
20200227223609 69 249 0.0 3.0 0.00 0.00 0.00 18 1023.1
20200227222809 70 352 0.0 1.0 0.00 0.00 0.00 19 1023.1
20200227222610 69 294 0.0 3.0 0.00 0.00 0.00 18 1023.1
20200227222409 69 296 1.0 3.0 0.00 0.00 0.00 19 1023.0
20200227222010 70 245 1.0 3.0 0.00 0.00 0.00 19 1023.1
20200227221610 70 269 1.0 3.0 0.00 0.00 0.00 20 1023.1
20200227221409 70 295 0.0 3.0 0.00 0.00 0.00 18 1023.1
20200227221210 70 331 0.0 3.0 0.00 0.00 0.00 19 1023.1
20200227220810 70 248 0.0 3.0 0.00 0.00 0.00 20 1023.1
20200227220409 70 240 1.0 4.0 0.00 0.00 0.00 20 1023.2
20200227220209 70 209 1.0 4.0 0.00 0.00 0.00 19 1023.1
20200227215409 70 250 1.0 4.0 0.00 0.00 0.00 19 1022.9
20200227215210 70 277 1.0 4.0 0.00 0.00 0.00 19 1023.0
20200227215010 70 285 1.0 3.0 0.00 0.00 0.00 20 1023.0
20200227214810 70 236 1.0 4.0 0.00 0.00 0.00 20 1022.9
20200227214209 70 273 1.0 4.0 0.00 0.00 0.00 19 1022.9
20200227214009 70 248 1.0 4.0 0.00 0.00 0.00 18 1022.8
20200227213209 70 260 0.0 2.0 0.00 0.00 0.00 17 1022.7
20200227212809 70 288 0.0 3.0 0.00 0.00 0.00 19 1022.8
20200227212410 70 16 0.0 3.0 0.00 0.00 0.00 17 1022.8
20200227212209 70 333 0.0 3.0 0.00 0.00 0.00 18 1022.8
20200227212009 70 356 0.0 3.0 0.00 0.00 0.00 16 1022.9
20200227210610 70 347 0.0 3.0 0.00 0.00 0.00 17 1022.9
20200227210409 70 16 0.0 3.0 0.00 0.00 0.00 19 1023.0
20200227205410 70 293 1.0 6.0 0.00 0.00 0.00 19 1023.2
20200227204610 70 15 2.0 7.0 0.00 0.00 0.00 18 1023.2
20200227204410 70 354 1.0 7.0 0.00 0.00 0.00 19 1023.3
20200227204209 70 290 1.0 7.0 0.00 0.00 0.00 21 1023.4
20200227204010 70 279 0.0 7.0 0.00 0.00 0.00 21 1023.4
20200227203809 70 300 1.0 3.0 0.00 0.00 0.00 19 1023.4
20200227203610 70 293 1.0 4.0 0.00 0.00 0.00 20 1023.4
20200227202810 70 287 2.0 5.0 0.00 0.00 0.00 17 1023.4
20200227202410 70 236 2.0 5.0 0.00 0.00 0.00 17 1023.5
20200227202010 70 218 2.0 5.0 0.00 0.00 0.00 17 1023.5
20200227201810 70 232 1.0 5.0 0.00 0.00 0.00 18 1023.7
20200227201610 70 252 1.0 4.0 0.00 0.00 0.00 19 1023.7
20200227201410 70 208 1.0 6.0 0.00 0.00 0.00 17 1023.7
20200227201209 70 208 1.0 6.0 0.00 0.00 0.00 19 1023.8
20200227201010 70 257 2.0 6.0 0.00 0.00 0.00 20 1023.7
20200227200810 70 356 2.0 6.0 0.00 0.00 0.00 18 1023.7
20200227200610 70 274 2.0 6.0 0.00 0.00 0.00 19 1023.8
20200227200409 70 288 2.0 6.0 0.00 0.00 0.00 19 1023.9
20200227200009 70 294 2.0 6.0 0.00 0.00 0.00 19 1023.9
20200227195209 69 288 1.0 4.0 0.00 0.00 0.00 17 1024.0
20200227195009 69 285 1.0 4.0 0.00 0.00 0.00 19 1024.0
20200227194810 69 188 1.0 5.0 0.00 0.00 0.00 17 1024.0
20200227194609 69 238 1.0 5.0 0.00 0.00 0.00 20 1024.1
20200227194410 69 300 1.0 5.0 0.00 0.00 0.00 18 1024.0
20200227194210 69 221 2.0 5.0 0.00 0.00 0.00 16 1024.1
20200227194010 69 205 1.0 5.0 0.00 0.00 0.00 18 1024.1
20200227193609 69 322 1.0 4.0 0.00 0.00 0.00 17 1024.3
20200227193409 69 277 1.0 4.0 0.00 0.00 0.00 17 1024.3
20200227192809 69 198 1.0 5.0 0.00 0.00 0.00 19 1024.2
20200227192610 68 309 1.0 5.0 0.00 0.00 0.00 20 1024.4
20200227192410 68 292 1.0 5.0 0.00 0.00 0.00 19 1024.3
20200227191610 68 283 1.0 4.0 0.00 0.00 0.00 17 1024.5
20200227191409 68 257 1.0 4.0 0.00 0.00 0.00 19 1024.5
20200227190809 68 191 1.0 5.0 0.00 0.00 0.00 19 1024.6
20200227190610 68 219 1.0 5.0 0.00 0.00 0.00 17 1024.7
20200227190210 67 249 0.0 3.0 0.00 0.00 0.00 18 1024.9
20200227190010 67 252 0.0 3.0 0.00 0.00 0.00 19 1024.6
20200227185809 67 312 0.0 4.0 0.00 0.00 0.00 17 1024.6
20200227185610 67 280 0.0 4.0 0.00 0.00 0.00 18 1024.7
20200227185009 67 288 1.0 4.0 0.00 0.00 0.00 18 1024.7
20200227184610 67 205 1.0 4.0 0.00 0.00 0.00 18 1024.6
20200227183809 67 269 0.0 2.0 0.00 0.00 0.00 19 1024.6
20200227183409 67 260 0.0 2.0 0.00 0.00 0.00 18 1024.7
20200227182810 66 286 0.0 3.0 0.00 0.00 0.00 18 1024.7
20200227182609 66 249 0.0 3.0 0.00 0.00 0.00 19 1024.8
20200227182209 66 262 0.0 3.0 0.00 0.00 0.00 17 1024.7
20200227181209 66 274 0.0 1.0 0.00 0.00 0.00 17 1024.7
20200227180609 65 278 0.0 1.0 0.00 0.00 0.00 16 1024.8
20200227180409 65 278 0.0 1.0 0.00 0.00 0.00 17 1024.8
20200227180009 65 277 0.0 1.0 0.00 0.00 0.00 17 1024.7
20200227175809 65 215 0.0 1.0 0.00 0.00 0.00 16 1024.7
20200227175609 65 340 0.0 1.0 0.00 0.00 0.00 18 1024.7
20200227175409 65 286 0.0 1.0 0.00 0.00 0.00 18 1024.7
20200227175010 65 216 0.0 4.0 0.00 0.00 0.00 18 1024.7
20200227174610 65 228 0.0 4.0 0.00 0.00 0.00 16 1024.6
20200227174410 65 214 1.0 5.0 0.00 0.00 0.00 17 1024.6
20200227174209 65 214 0.0 5.0 0.00 0.00 0.00 17 1024.5
20200227173810 65 260 0.0 5.0 0.00 0.00 0.00 16 1024.6
20200227173610 65 260 0.0 5.0 0.00 0.00 0.00 15 1024.5
20200227173409 65 298 0.0 2.0 0.00 0.00 0.00 15 1024.6
20200227173210 65 243 0.0 3.0 0.00 0.00 0.00 16 1024.6
20200227173009 65 278 0.0 3.0 0.00 0.00 0.00 17 1024.5
20200227172810 65 271 0.0 3.0 0.00 0.00 0.00 17 1024.5
20200227172010 65 215 0.0 2.0 0.00 0.00 0.00 15 1024.4
20200227171810 66 231 0.0 2.0 0.00 0.00 0.00 15 1024.4
20200227171410 65 218 0.0 1.0 0.00 0.00 0.00 17 1024.4
20200227171209 65 215 0.0 1.0 0.00 0.00 0.00 17 1024.4
20200227170409 64 282 0.0 2.0 0.00 0.00 0.00 16 1024.4
20200227170209 64 264 0.0 2.0 0.00 0.00 0.00 16 1024.4
20200227165209 64 165 0.0 3.0 0.00 0.00 0.00 18 1024.1
20200227164809 64 234 0.0 3.0 0.00 0.00 0.00 20 1024.1
20200227164410 64 215 0.0 0.0 0.00 0.00 0.00 20 1024.0
20200227163409 64 97 0.0 0.0 0.00 0.00 0.00 24 1024.0
20200227162610 63 96 0.0 0.0 0.00 0.00 0.00 27 1024.1
20200227162410 63 96 0.0 0.0 0.00 0.00 0.00 24 1024.0
20200227162209 63 96 0.0 0.0 0.00 0.00 0.00 27 1024.1
20200227162009 63 96 0.0 1.0 0.00 0.00 0.00 24 1024.1
20200227161810 63 96 0.0 1.0 0.00 0.00 0.00 22 1024.0
20200227161609 62 96 0.0 1.0 0.00 0.00 0.00 22 1024.0
20200227161210 62 96 0.0 1.0 0.00 0.00 0.00 22 1024.1
20200227161010 62 96 0.0 1.0 0.00 0.00 0.00 21 1024.0
20200227160809 61 87 0.0 1.0 0.00 0.00 0.00 22 1024.0
20200227160210 61 83 0.0 0.0 0.00 0.00 0.00 23 1024.0
20200227155810 61 83 0.0 0.0 0.00 0.00 0.00 22 1024.1
20200227155209 60 94 0.0 0.0 0.00 0.00 0.00 23 1024.0
20200227155010 60 85 0.0 0.0 0.00 0.00 0.00 22 1024.0
20200227154809 60 85 0.0 0.0 0.00 0.00 0.00 23 1024.0
20200227154609 59 85 0.0 0.0 0.00 0.00 0.00 23 1024.0
20200227154210 59 85 0.0 0.0 0.00 0.00 0.00 23 1024.0
20200227153609 58 85 0.0 1.0 0.00 0.00 0.00 23 1023.8
20200227153409 58 84 0.0 2.0 0.00 0.00 0.00 23 1023.8
20200227153209 57 85 0.0 2.0 0.00 0.00 0.00 23 1023.8
20200227153010 57 86 0.0 2.0 0.00 0.00 0.00 23 1023.8
20200227152809 57 84 0.0 2.0 0.00 0.00 0.00 23 1023.7
20200227152610 57 94 0.0 2.0 0.00 0.00 0.00 23 1023.7
20200227152409 56 95 0.0 1.0 0.00 0.00 0.00 23 1023.7
20200227152210 56 94 0.0 1.0 0.00 0.00 0.00 23 1023.7
20200227152009 56 93 0.0 1.0 0.00 0.00 0.00 23 1023.7
20200227151809 56 91 0.0 2.0 0.00 0.00 0.00 23 1023.7
20200227151409 56 91 1.0 2.0 0.00 0.00 0.00 23 1023.7
20200227151210 56 91 1.0 2.0 0.00 0.00 0.00 22 1023.7
20200227150810 56 91 1.0 2.0 0.00 0.00 0.00 23 1023.7
20200227150609 56 86 0.0 2.0 0.00 0.00 0.00 22 1023.7
20200227145809 56 98 0.0 2.0 0.00 0.00 0.00 21 1023.7
20200227145610 56 97 0.0 2.0 0.00 0.00 0.00 21 1023.6
20200227145410 56 98 0.0 2.0 0.00 0.00 0.00 21 1023.6
20200227145210 56 98 0.0 2.0 0.00 0.00 0.00 22 1023.5
20200227145009 56 89 0.0 1.0 0.00 0.00 0.00 22 1023.5
20200227144810 56 89 0.0 0.0 0.00 0.00 0.00 22 1023.4
20200227144609 56 91 0.0 0.0 0.00 0.00 0.00 21 1023.4
20200227143809 56 91 0.0 3.0 0.00 0.00 0.00 20 1023.4
20200227143410 56 92 1.0 3.0 0.00 0.00 0.00 20 1023.3
20200227143009 55 91 1.0 3.0 0.00 0.00 0.00 21 1023.2
20200227142809 55 86 1.0 3.0 0.00 0.00 0.00 21 1023.2
20200227142610 55 87 1.0 4.0 0.00 0.00 0.00 21 1023.2
20200227142410 55 86 1.0 4.0 0.00 0.00 0.00 21 1023.2
20200227142209 55 85 1.0 4.0 0.00 0.00 0.00 21 1023.1
20200227141810 55 77 1.0 4.0 0.00 0.00 0.00 22 1023.2
20200227141609 55 91 2.0 3.0 0.00 0.00 0.00 21 1023.3
20200227141410 55 91 2.0 3.0 0.00 0.00 0.00 21 1023.3
20200227141009 55 83 2.0 3.0 0.00 0.00 0.00 22 1023.4
20200227140809 54 82 2.0 3.0 0.00 0.00 0.00 22 1023.5
20200227140609 55 86 1.0 3.0 0.00 0.00 0.00 23 1023.4
20200227140410 55 89 1.0 2.0 0.00 0.00 0.00 22 1023.5
20200227135210 54 83 2.0 2.0 0.00 0.00 0.00 23 1023.6
20200227134609 55 94 0.0 2.0 0.00 0.00 0.00 23 1023.6
20200227134409 55 78 0.0 2.0 0.00 0.00 0.00 23 1023.6
20200227133609 55 91 0.0 2.0 0.00 0.00 0.00 22 1023.6
20200227133410 55 90 0.0 2.0 0.00 0.00 0.00 22 1023.6
20200227133009 54 91 1.0 3.0 0.00 0.00 0.00 23 1023.6
20200227132810 54 87 1.0 3.0 0.00 0.00 0.00 23 1023.5
20200227132609 54 86 2.0 3.0 0.00 0.00 0.00 22 1023.6
20200227132410 55 94 2.0 3.0 0.00 0.00 0.00 23 1023.6
20200227132210 55 77 1.0 3.0 0.00 0.00 0.00 22 1023.6
20200227132010 55 81 1.0 2.0 0.00 0.00 0.00 22 1023.6
20200227131609 55 91 0.0 2.0 0.00 0.00 0.00 22 1023.6
20200227131410 55 86 0.0 2.0 0.00 0.00 0.00 22 1023.7
20200227131209 55 101 0.0 2.0 0.00 0.00 0.00 22 1023.7
20200227131009 55 78 0.0 1.0 0.00 0.00 0.00 22 1023.7
20200227130809 55 89 0.0 1.0 0.00 0.00 0.00 22 1023.7
20200227130209 56 95 0.0 1.0 0.00 0.00 0.00 21 1023.8
20200227130010 56 94 0.0 2.0 0.00 0.00 0.00 21 1023.6
20200227125810 56 95 0.0 2.0 0.00 0.00 0.00 20 1023.5
20200227125409 56 91 0.0 2.0 0.00 0.00 0.00 21 1023.5
20200227124209 57 93 1.0 3.0 0.00 0.00 0.00 20 1023.4
20200227124009 57 96 1.0 3.0 0.00 0.00 0.00 20 1023.3
20200227123809 57 95 2.0 3.0 0.00 0.00 0.00 20 1023.2
20200227123409 57 91 2.0 4.0 0.00 0.00 0.00 20 1023.2
20200227122609 57 96 2.0 4.0 0.00 0.00 0.00 21 1023.2
20200227122209 57 91 1.0 3.0 0.00 0.00 0.00 21 1023.2
20200227122009 57 86 1.0 3.0 0.00 0.00 0.00 21 1023.3
20200227121609 56 114 2.0 4.0 0.00 0.00 0.00 21 1023.2
20200227121009 56 77 3.0 4.0 0.00 0.00 0.00 21 1023.4
20200227120810 56 86 3.0 4.0 0.00 0.00 0.00 21 1023.4
20200227120609 56 92 3.0 4.0 0.00 0.00 0.00 22 1023.5
20200227120409 56 89 3.0 5.0 0.00 0.00 0.00 22 1023.5
20200227120009 56 86 3.0 5.0 0.00 0.00 0.00 22 1023.5
20200227115809 56 94 3.0 5.0 0.00 0.00 0.00 22 1023.6
20200227115209 55 89 3.0 4.0 0.00 0.00 0.00 23 1023.5
20200227114809 55 83 3.0 4.0 0.00 0.00 0.00 24 1023.4
20200227114209 54 86 3.0 4.0 0.00 0.00 0.00 24 1023.5
20200227114009 54 83 2.0 4.0 0.00 0.00 0.00 25 1023.5
20200227113010 54 77 2.0 3.0 0.00 0.00 0.00 26 1023.6
20200227111809 56 110 0.0 1.0 0.00 0.00 0.00 24 1023.5
20200227111409 57 115 0.0 1.0 0.00 0.00 0.00 22 1023.4
20200227110810 57 122 0.0 1.0 0.00 0.00 0.00 21 1023.4
20200227110610 57 122 0.0 1.0 0.00 0.00 0.00 21 1023.4
20200227110409 57 122 0.0 1.0 0.00 0.00 0.00 21 1023.4
20200227105810 57 121 0.0 0.0 0.00 0.00 0.00 22 1023.4
20200227105610 57 121 0.0 0.0 0.00 0.00 0.00 22 1023.4
20200227104410 57 201 0.0 2.0 0.00 0.00 0.00 21 1023.5
20200227104010 57 174 1.0 4.0 0.00 0.00 0.00 21 1023.4
20200227103809 56 91 2.0 4.0 0.00 0.00 0.00 21 1023.4
20200227103609 56 98 2.0 4.0 0.00 0.00 0.00 22 1023.4
20200227103409 56 111 3.0 4.0 0.00 0.00 0.00 22 1023.4
20200227103010 55 89 3.0 4.0 0.00 0.00 0.00 23 1023.5
20200227102810 55 86 2.0 4.0 0.00 0.00 0.00 23 1023.5
20200227102609 55 81 2.0 3.0 0.00 0.00 0.00 23 1023.5
20200227102409 55 77 2.0 3.0 0.00 0.00 0.00 24 1023.6
20200227102009 54 86 2.0 3.0 0.00 0.00 0.00 24 1023.7
20200227101810 54 77 2.0 3.0 0.00 0.00 0.00 24 1023.8
20200227101609 54 82 2.0 3.0 0.00 0.00 0.00 24 1023.8
20200227101409 54 79 1.0 3.0 0.00 0.00 0.00 25 1023.8
20200227101209 54 79 1.0 3.0 0.00 0.00 0.00 25 1023.8
20200227101009 54 82 1.0 3.0 0.00 0.00 0.00 25 1023.8
20200227100810 54 74 0.0 3.0 0.00 0.00 0.00 25 1023.9
20200227100609 54 82 0.0 1.0 0.00 0.00 0.00 25 1024.0
20200227100409 54 88 0.0 1.0 0.00 0.00 0.00 25 1024.0
20200227095610 54 91 0.0 2.0 0.00 0.00 0.00 25 1024.1
20200227095409 54 89 0.0 2.0 0.00 0.00 0.00 25 1024.1
20200227095009 54 95 0.0 2.0 0.00 0.00 0.00 25 1024.1
20200227094209 53 91 1.0 3.0 0.00 0.00 0.00 26 1024.2
20200227094010 53 89 1.0 3.0 0.00 0.00 0.00 26 1024.2
20200227093809 53 82 2.0 3.0 0.00 0.00 0.00 26 1024.3
20200227093609 53 87 2.0 3.0 0.00 0.00 0.00 26 1024.3
20200227093209 53 92 2.0 3.0 0.00 0.00 0.00 26 1024.4
20200227093009 53 96 1.0 3.0 0.00 0.00 0.00 26 1024.4
20200227092809 53 83 1.0 3.0 0.00 0.00 0.00 27 1024.4
20200227092009 53 91 1.0 2.0 0.00 0.00 0.00 27 1024.4
20200227091809 53 86 1.0 2.0 0.00 0.00 0.00 27 1024.5
20200227091609 53 81 1.0 2.0 0.00 0.00 0.00 27 1024.5
20200227091410 53 79 0.0 2.0 0.00 0.00 0.00 27 1024.5
20200227091009 53 83 1.0 2.0 0.00 0.00 0.00 26 1024.5
20200227090809 54 82 1.0 2.0 0.00 0.00 0.00 26 1024.5
20200227090409 54 86 0.0 2.0 0.00 0.00 0.00 25 1024.6
20200227090209 54 91 0.0 2.0 0.00 0.00 0.00 25 1024.6
20200227085809 54 89 1.0 3.0 0.00 0.00 0.00 25 1024.6
20200227085609 54 91 1.0 3.0 0.00 0.00 0.00 25 1024.6
20200227085410 54 94 1.0 3.0 0.00 0.00 0.00 25 1024.6
20200227084609 54 93 1.0 2.0 0.00 0.00 0.00 25 1024.7
20200227084409 54 96 1.0 2.0 0.00 0.00 0.00 26 1024.7
20200227084209 54 86 1.0 2.0 0.00 0.00 0.00 26 1024.7
20200227084009 54 91 1.0 2.0 0.00 0.00 0.00 26 1024.6
20200227083809 54 86 1.0 2.0 0.00 0.00 0.00 25 1024.7
20200227083409 54 88 1.0 2.0 0.00 0.00 0.00 26 1024.6
20200227083209 54 77 0.0 2.0 0.00 0.00 0.00 26 1024.6
20200227083010 54 82 0.0 1.0 0.00 0.00 0.00 26 1024.6
20200227082609 54 117 0.0 1.0 0.00 0.00 0.00 25 1024.5
20200227082409 54 117 0.0 1.0 0.00 0.00 0.00 26 1024.5
20200227081810 55 120 0.0 0.0 0.00 0.00 0.00 24 1024.4
20200227081609 55 122 0.0 0.0 0.00 0.00 0.00 23 1024.4
20200227081409 55 122 0.0 1.0 0.00 0.00 0.00 24 1024.3
20200227080410 54 117 0.0 1.0 0.00 0.00 0.00 26 1024.3
20200227080009 54 91 0.0 0.0 0.00 0.00 0.00 26 1024.3
20200227075809 54 91 0.0 2.0 0.00 0.00 0.00 26 1024.2
20200227075609 54 91 1.0 3.0 0.00 0.00 0.00 26 1024.2
20200227075410 54 91 1.0 3.0 0.00 0.00 0.00 26 1024.2
20200227074809 54 91 1.0 3.0 0.00 0.00 0.00 27 1024.3
20200227074209 55 97 0.0 2.0 0.00 0.00 0.00 27 1024.2
20200227074009 55 98 1.0 2.0 0.00 0.00 0.00 27 1024.1
20200227073409 55 93 1.0 2.0 0.00 0.00 0.00 27 1024.1
20200227073209 55 86 1.0 2.0 0.00 0.00 0.00 27 1024.1
20200227072209 55 87 0.0 2.0 0.00 0.00 0.00 27 1024.1
20200227072009 55 91 0.0 1.0 0.00 0.00 0.00 27 1024.0
20200227071609 55 93 0.0 1.0 0.00 0.00 0.00 26 1024.1
20200227071209 55 94 0.0 2.0 0.00 0.00 0.00 26 1024.0
20200227071009 55 93 0.0 2.0 0.00 0.00 0.00 26 1024.0
20200227070810 55 93 0.0 2.0 0.00 0.00 0.00 26 1024.0
20200227070609 55 93 0.0 2.0 0.00 0.00 0.00 27 1024.0
20200227070410 55 94 1.0 3.0 0.00 0.00 0.00 27 1024.0
20200227070209 55 91 1.0 3.0 0.00 0.00 0.00 27 1024.0
20200227065210 55 81 0.0 2.0 0.00 0.00 0.00 27 1024.1
20200227064010 56 94 1.0 2.0 0.00 0.00 0.00 26 1024.1
20200227063809 56 87 1.0 2.0 0.00 0.00 0.00 27 1024.1
20200227063410 56 91 1.0 3.0 0.00 0.00 0.00 26 1024.1
20200227063209 56 90 1.0 3.0 0.00 0.00 0.00 26 1024.1